Location: Newark
(7.0858°N, 171.3717°E)
Time: 08:57:12
(UTC+00:00)

S-56A Canister/Altair - Pass Details

Date: 04 December 2020
Orbit: 633 x 2499 km, 38.9° (Epoch: 27 January)

Event Time Altitude Azimuth Distance (km) Brightness Sun altitude
Rises 06:40:57 0° 276° (W) 6,141 13.4 -6.4°
Reaches altitude 10° 06:47:12 10° 292° (WNW) 4,981 12.4 -7.8°
Maximum altitude 06:55:36 18° 330° (NNW) 3,969 11.3 -9.8°
Drops below altitude 10° 07:02:48 10° 9° (N) 4,139 11.0 -11.4°
Enters shadow 07:06:58 - 27° (NNE) 4,716 11.1 -12.4°
Sets 07:07:19 0° 28° (NNE) 4,777 - -12.5°
